User: anonymous   Login
Location: The D'Auria's Ocala Star Observatory
(29.0276°N, 82.1742°W)
Time: 19:15:31
(UTC-04:00)
Language:

Abrixas rocket - Orbit

View from above orbital plane
View from above orbital plane
View from above satellite
View from above satellite

Ground track
Ground track

The orbit data is extracted from the following two-line orbital elements,

1 25723U 99022C   17141.86857309 +.00008067 +00000-0 +12968-3 0  9991
2 25723 048.4167 307.7036 0011429 267.0416 092.9221 15.53787126002080
Epoch (UTC): 21 May 2017 20:50:44
Eccentricity: 0.0011429
inclination: 48.4167°
perigee height: 398 km
apogee height: 413 km
right ascension of ascending node: 307.7036°
argument of perigee: 267.0416°
revolutions per day: 15.53787126
mean anomaly at epoch: 92.9221°
orbit number at epoch: 208

The dashed part of the orbit path shows where the satellite is in the earth's shadow,  

DLR